Weather History for Concordia, KS

Change the Weather History Date:

Tuesday, November 19, 2013

  Actual Average Record
Temperature  
Mean Temperature 51 °F 40 °F  
Max Temperature 63 °F 50 °F 78 °F (1942)
Min Temperature 38 °F 29 °F 7 °F (1914)
Degree Days  
Heating Degree Days 14 25  
Month to date heating degree days 347 388  
Since 1 July heating degree days 691 779  
Cooling Degree Days 0 0  
Month to date cooling degree days 0 0  
Year to date cooling degree days 1359 1348  
Moisture  
Dew Point 26 °F    
Average Humidity 41    
Maximum Humidity 54    
Minimum Humidity 27    
Precipitation  
Precipitation 0.00 in 0.03 in 2.00 in (1930)
Month to date precipitation 1.09 0.76  
Year to date precipitation 26.59 26.69  
Snow  
Snow 0.00 in 0.10 in 1.70 in (1948)
Month to date snowfall 0.0 1.2  
Year to date snowfall 20.3 15.1  
Since 1 July snowfall 0.0 1.4  
Snow Depth 0.00 in    
Sea Level Pressure  
Sea Level Pressure 29.98 in    
Wind  
Wind Speed 18 mph (SSE)    
Max Wind Speed 35 mph    
Max Gust Speed 43 mph    
Visibility 10 miles    
Events      
T = Trace of Precipitation, MM = Missing Value Source: NWS Daily Summary

Daily Weather History Graph

Daily Weather History Graph

Search for Another Location

Airport:

Trip Planner

Search our weather history database for the weather conditions in past years. The results will help you decide how hot, cold, wet, or windy it might be!

Date:

Astronomy

Nov. 19, 2013 Rise Set
Actual Time 7:19 AM CST 5:12 PM CST
Civil Twilight 6:50 AM CST 5:41 PM CST
Nautical Twilight 6:17 AM CST 6:14 PM CST
Astronomical Twilight 5:45 AM CST 6:46 PM CST
Moon 7:04 PM CST (11/19) 8:59 AM CST (11/19)
Length of Visible Light 10h 50m
Length of Day
9h 52m
Waning Gibbous, 96% of the Moon is Illuminated
Nov 19
Waning Gibbous
Nov 25
Last Quarter
Dec 2
New
Dec 9
First Quarter
Dec 17
Full

Hourly Weather History & Observations

Time (CST) Temp. Windchill Dew Point Humidity Pressure Visibility Wind Dir Wind Speed Gust Speed Precip Events Conditions
12:55 AM 42.1 °F 34.9 °F 21.0 °F 43% 30.18 in 10.0 mi South 13.8 mph - N/A   Clear
1:55 AM 39.9 °F 32.9 °F 21.0 °F 47% 30.17 in 10.0 mi South 11.5 mph - N/A   Clear
2:55 AM 39.9 °F 32.1 °F 23.0 °F 51% 30.15 in 10.0 mi South 13.8 mph - N/A   Clear
3:55 AM 39.9 °F 32.1 °F 24.1 °F 53% 30.14 in 10.0 mi South 13.8 mph - N/A   Clear
4:55 AM 39.9 °F 32.5 °F 25.0 °F 55% 30.12 in 10.0 mi South 12.7 mph - N/A   Clear
5:55 AM 39.0 °F 31.0 °F 25.0 °F 57% 30.11 in 10.0 mi South 13.8 mph - N/A   Clear
6:55 AM 39.9 °F 31.8 °F 25.0 °F 55% 30.10 in 10.0 mi SSE 15.0 mph - N/A   Clear
7:55 AM 42.1 °F 34.5 °F 26.1 °F 53% 30.10 in 10.0 mi South 15.0 mph - N/A   Clear
8:55 AM 45.0 °F 37.9 °F 27.0 °F 49% 30.09 in 10.0 mi South 16.1 mph - N/A   Clear
9:55 AM 52.0 °F - 30.9 °F 45% 30.06 in 10.0 mi South 16.1 mph 25.3 mph N/A   Partly Cloudy
10:55 AM 55.0 °F - 32.0 °F 42% 30.04 in 10.0 mi South 16.1 mph 28.8 mph N/A   Partly Cloudy
11:55 AM 60.1 °F - 30.9 °F 33% 29.99 in 10.0 mi South 32.2 mph 42.6 mph N/A   Clear
12:55 PM 61.0 °F - 32.0 °F 34% 29.93 in 10.0 mi South 23.0 mph 38.0 mph N/A   Clear
1:55 PM 62.1 °F - 30.9 °F 31% 29.90 in 10.0 mi South 28.8 mph 41.4 mph N/A   Clear
2:55 PM 62.1 °F - 28.9 °F 29% 29.86 in 10.0 mi South 27.6 mph 38.0 mph N/A   Clear
3:55 PM 60.1 °F - 26.1 °F 27% 29.85 in 10.0 mi SSE 28.8 mph 35.7 mph N/A   Scattered Clouds
4:55 PM 57.0 °F - 24.1 °F 28% 29.86 in 10.0 mi South 20.7 mph 29.9 mph N/A   Overcast
5:55 PM 53.1 °F - 24.1 °F 32% 29.88 in 10.0 mi South 13.8 mph - N/A   Clear
6:55 PM 52.0 °F - 24.1 °F 34% 29.88 in 10.0 mi SSE 21.9 mph 27.6 mph N/A   Clear
7:55 PM 50.0 °F - 24.1 °F 36% 29.87 in 10.0 mi SSE 18.4 mph - N/A   Clear
8:55 PM 48.0 °F - 25.0 °F 41% 29.86 in 10.0 mi SSE 17.3 mph - N/A   Clear
9:55 PM 46.9 °F - 25.0 °F 42% 29.86 in 10.0 mi SE 12.7 mph - N/A   Clear
10:55 PM 46.9 °F - 26.1 °F 44% 29.85 in 10.0 mi SSE 13.8 mph - N/A   Clear
11:55 PM 46.0 °F 40.6 °F 26.1 °F 46% 29.83 in 10.0 mi SE 11.5 mph 18.4 mph N/A   Clear